Location: Fontevrault
(47.1823°N, 0.0493°E)
Time: 04:12:58
(UTC+00:00)

Cosmos 1459 Rocket - Pass Details

Date: 24 October 2021
Orbit: 936 x 1000 km, 83.0° (Epoch: 01 December)

Event Time Altitude Azimuth Distance (km) Brightness Sun altitude
Rises 18:16:28 0° 148° (SSE) 3,659 6.7 -14.3°
Reaches altitude 10° 18:19:24 10° 136° (SE) 2,705 5.9 -14.8°
Maximum altitude 18:24:16 25° 84° (E) 1,836 4.8 -15.6°
Drops below altitude 10° 18:29:05 10° 31° (NNE) 2,686 6.0 -16.4°
Sets 18:31:59 0° 19° (NNE) 3,628 6.8 -16.9°
